Weather History for Tinker AFB, OK

Change the Weather History Date:

Wednesday, February 20, 2013

  Actual Average Record
Temperature  
Mean Temperature 37 °F -  
Max Temperature 42 °F 52 °F 75 °F (2005)
Min Temperature 32 °F 33 °F 23 °F (2006)
Degree Days  
Heating Degree Days 28    
Moisture  
Dew Point 33 °F    
Average Humidity 97    
Maximum Humidity 100    
Minimum Humidity 48    
Precipitation  
Precipitation 0.54 in - - ()
Sea Level Pressure  
Sea Level Pressure 30.12 in    
Wind  
Wind Speed 10 mph (ESE)    
Max Wind Speed 17 mph    
Max Gust Speed 24 mph    
Visibility 6 miles    
Events Rain , Snow    
Averages and records for this station are not official NWS values.
T = Trace of Precipitation, MM = Missing Value Source: NWS Daily Summary

Daily Weather History Graph

Daily Weather History Graph

Search for Another Location

Airport:

Trip Planner

Search our weather history database for the weather conditions in past years. The results will help you decide how hot, cold, wet, or windy it might be!

Date:

Astronomy

Feb. 20, 2013 Rise Set
Actual Time 7:10 AM CST 6:16 PM CST
Civil Twilight 6:44 AM CST 6:42 PM CST
Nautical Twilight 6:14 AM CST 7:12 PM CST
Astronomical Twilight 5:45 AM CST 7:41 PM CST
Moon 1:45 PM CST (2/20) 3:24 AM CST (2/20)
Length of Visible Light 11h 58m
Length of Day
11h 06m
Waxing Gibbous, 76% of the Moon is Illuminated
Feb 20
Waxing Gibbous
Feb 25
Full
Mar 4
Last Quarter
Mar 11
New
Mar 19
First Quarter

Hourly Weather History & Observations

Time (CST) Temp. Windchill Dew Point Humidity Pressure Visibility Wind Dir Wind Speed Gust Speed Precip Events Conditions
12:55 AM 42.6 °F 36.3 °F 24.4 °F 49% 30.18 in 10.0 mi East 11.5 mph - N/A   Partly Cloudy
1:55 AM 42.6 °F 36.3 °F 23.9 °F 48% 30.17 in 10.0 mi ESE 11.5 mph - N/A   Clear
2:55 AM 42.3 °F 37.3 °F 23.5 °F 48% 30.17 in 10.0 mi ESE 8.1 mph - N/A   Clear
3:21 AM 42.8 °F 35.8 °F 26.6 °F 53% 30.19 in 10.0 mi South 13.8 mph - N/A Rain Light Rain
3:40 AM 39.2 °F 33.6 °F 33.8 °F 81% 30.19 in 10.0 mi SE 8.1 mph - N/A Rain Light Rain
3:48 AM 37.4 °F 30.3 °F 33.8 °F 87% 30.19 in 9.0 mi SSE 10.4 mph - N/A   Mostly Cloudy
3:55 AM 37.2 °F 29.1 °F 34.0 °F 88% 30.19 in 9.0 mi SE 12.7 mph 17.3 mph 0.02 in   Mostly Cloudy
4:11 AM 35.6 °F 28.6 °F 33.8 °F 93% 30.17 in 8.0 mi SE 9.2 mph - N/A Rain , Snow Light Rain
4:33 AM 35.6 °F 30.7 °F 33.8 °F 93% 30.20 in 5.0 mi SE 5.8 mph - N/A Rain , Snow Light Rain
4:44 AM 33.8 °F 28.6 °F 33.8 °F 100% 30.20 in 2.5 mi SE 5.8 mph - N/A Snow Light Snow
4:46 AM 33.8 °F 29.6 °F 33.8 °F 100% 30.19 in 2.5 mi SE 4.6 mph - N/A Snow Light Snow
4:48 AM 33.8 °F 28.6 °F 33.8 °F 100% 30.19 in 2.5 mi ESE 5.8 mph - N/A Snow Light Snow
4:55 AM 33.4 °F 29.1 °F 33.3 °F 99% 30.19 in 2.0 mi ESE 4.6 mph - 0.11 in Snow Light Snow
5:05 AM 33.8 °F 29.6 °F 33.8 °F 100% 30.20 in 1.8 mi ESE 4.6 mph - N/A Snow Light Snow
5:13 AM 32.0 °F 27.5 °F 32.0 °F 100% 30.19 in 2.0 mi East 4.6 mph - N/A Snow Light Snow
5:19 AM 32.0 °F 26.4 °F 32.0 °F 100% 30.19 in 2.0 mi ESE 5.8 mph - N/A Snow Light Snow
5:22 AM 32.0 °F 26.4 °F 32.0 °F 100% 30.19 in 2.0 mi ESE 5.8 mph - N/A Snow Light Snow
5:25 AM 32.0 °F 26.4 °F 32.0 °F 100% 30.19 in 2.5 mi ESE 5.8 mph - N/A Snow Light Snow
5:41 AM 32.0 °F 26.4 °F 32.0 °F 100% 30.19 in 2.5 mi East 5.8 mph - N/A Snow Light Snow
5:44 AM 32.0 °F 26.4 °F 32.0 °F 100% 30.19 in 3.0 mi East 5.8 mph - N/A Snow Light Snow
5:55 AM 32.7 °F 27.3 °F 32.7 °F 100% 30.19 in 3.0 mi East 5.8 mph - 0.09 in Snow Light Snow
6:02 AM 32.0 °F 26.4 °F 32.0 °F 100% 30.19 in 2.5 mi ESE 5.8 mph - N/A Snow Light Snow
6:04 AM 32.0 °F 27.5 °F 32.0 °F 100% 30.20 in 2.5 mi ESE 4.6 mph - N/A Snow Light Snow
6:08 AM 32.0 °F 25.6 °F 32.0 °F 100% 30.19 in 2.5 mi ESE 6.9 mph - N/A Snow Light Snow
6:14 AM 32.0 °F 26.4 °F 32.0 °F 100% 30.20 in 2.5 mi ESE 5.8 mph - N/A Snow Light Snow
6:17 AM 32.0 °F 27.5 °F 32.0 °F 100% 30.20 in 3.0 mi ESE 4.6 mph - N/A Snow Light Snow
6:45 AM 32.0 °F 24.8 °F 32.0 °F 100% 30.20 in 2.5 mi ESE 8.1 mph - N/A Snow Light Snow
6:48 AM 32.0 °F 24.2 °F 32.0 °F 100% 30.20 in 2.5 mi ESE 9.2 mph - N/A Snow Light Snow
6:55 AM 32.7 °F 25.7 °F 32.7 °F 100% 30.20 in 2.0 mi ESE 8.1 mph - 0.07 in Snow Light Snow
6:56 AM 32.0 °F 24.2 °F 32.0 °F 100% 30.20 in 1.8 mi ESE 9.2 mph - N/A Snow Light Snow
7:00 AM 32.0 °F 24.2 °F 32.0 °F 100% 30.20 in 1.5 mi ESE 9.2 mph - N/A Snow Light Snow
7:03 AM 32.0 °F 24.8 °F 32.0 °F 100% 30.20 in 1.8 mi ESE 8.1 mph - N/A Snow Light Snow
7:06 AM 32.0 °F 24.2 °F 32.0 °F 100% 30.19 in 1.8 mi ESE 9.2 mph - N/A Snow Light Snow
7:07 AM 32.0 °F 24.2 °F 32.0 °F 100% 30.19 in 2.0 mi ESE 9.2 mph - N/A Snow Light Snow
7:10 AM 32.0 °F 25.6 °F 32.0 °F 100% 30.19 in 2.0 mi ESE 6.9 mph - N/A Snow Light Snow
7:14 AM 32.0 °F 24.2 °F 32.0 °F 100% 30.19 in 1.8 mi ESE 9.2 mph - N/A Snow Light Snow
7:18 AM 32.0 °F 24.2 °F 32.0 °F 100% 30.20 in 1.5 mi ESE 9.2 mph - N/A Snow Light Snow
7:24 AM 32.0 °F 24.2 °F 32.0 °F 100% 30.20 in 1.2 mi ESE 9.2 mph - N/A Snow Light Snow
7:28 AM 32.0 °F 23.6 °F 32.0 °F 100% 30.19 in 1.0 mi ESE 10.4 mph - N/A Snow Light Snow
7:44 AM 32.0 °F 23.6 °F 32.0 °F 100% 30.19 in 0.8 mi ESE 10.4 mph - N/A Snow Light Snow
7:55 AM 32.7 °F 25.0 °F 32.7 °F 100% 30.20 in 0.8 mi ESE 9.2 mph 19.6 mph 0.08 in Snow Light Snow
8:01 AM 32.0 °F 23.0 °F 32.0 °F 100% 30.19 in 1.0 mi ESE 11.5 mph - N/A Snow Light Snow
8:04 AM 32.0 °F 22.5 °F 32.0 °F 100% 30.19 in 1.2 mi ESE 12.7 mph - N/A Snow Light Snow
8:09 AM 32.0 °F 24.2 °F 32.0 °F 100% 30.19 in 1.5 mi ESE 9.2 mph - N/A Snow Light Snow
8:15 AM 33.8 °F 26.4 °F 33.8 °F 100% 30.20 in 3.0 mi ESE 9.2 mph - N/A Snow Light Snow
8:34 AM 33.8 °F 25.3 °F 33.8 °F 100% 30.20 in 1.8 mi ESE 11.5 mph 17.3 mph N/A Rain Light Rain
8:37 AM 33.8 °F 25.8 °F 33.8 °F 100% 30.20 in 2.0 mi ESE 10.4 mph 17.3 mph N/A Rain Light Rain
8:42 AM 33.8 °F 26.4 °F 33.8 °F 100% 30.20 in 3.0 mi ESE 9.2 mph 16.1 mph N/A   Overcast
8:55 AM 33.1 °F 24.9 °F 33.1 °F 100% 30.20 in 7.0 mi ESE 10.4 mph - 0.12 in Rain Light Rain
9:55 AM 33.3 °F 25.1 °F 33.3 °F 100% 30.19 in 10.0 mi ESE 10.4 mph - 0.02 in   Light Drizzle
10:55 AM 34.0 °F 25.5 °F 34.0 °F 100% 30.15 in 7.0 mi East 11.5 mph 19.6 mph 0.01 in   Light Drizzle
10:57 AM 33.8 °F 23.5 °F 33.8 °F 100% 30.15 in 10.0 mi East 16.1 mph - N/A   Overcast
11:07 AM 33.8 °F 23.2 °F 33.8 °F 100% 30.14 in 10.0 mi East 17.3 mph 21.9 mph N/A   Light Drizzle
11:33 AM 33.8 °F 25.3 °F 33.8 °F 100% 30.13 in 10.0 mi East 11.5 mph 23.0 mph N/A   Overcast
11:55 AM 34.3 °F 25.0 °F 34.3 °F 100% 30.13 in 10.0 mi East 13.8 mph 20.7 mph 0.00 in   Overcast
12:13 PM 33.8 °F 23.5 °F 33.8 °F 100% 30.13 in 10.0 mi East 16.1 mph 24.2 mph N/A   Overcast
12:23 PM 33.8 °F 25.3 °F 33.8 °F 100% 30.13 in 10.0 mi ESE 11.5 mph 19.6 mph N/A   Overcast
12:55 PM 34.2 °F 24.8 °F 34.2 °F 100% 30.11 in 10.0 mi ESE 13.8 mph 20.7 mph 0.00 in   Overcast
1:28 PM 33.8 °F 25.8 °F 33.8 °F 100% 30.08 in 10.0 mi East 10.4 mph - N/A   Light Drizzle
1:55 PM 34.5 °F 26.7 °F 34.5 °F 100% 30.06 in 10.0 mi East 10.4 mph 18.4 mph 0.00 in Rain Light Rain
2:27 PM 33.8 °F 25.8 °F 33.8 °F 100% 30.06 in 8.0 mi East 10.4 mph - N/A   Light Drizzle
2:32 PM 33.8 °F 26.4 °F 33.8 °F 100% 30.06 in 8.0 mi East 9.2 mph - N/A   Overcast
2:35 PM 33.8 °F 25.8 °F 33.8 °F 100% 30.06 in 10.0 mi East 10.4 mph - N/A   Light Drizzle
2:55 PM 34.3 °F 25.5 °F 34.3 °F 100% 30.04 in 10.0 mi East 12.7 mph - 0.01 in   Overcast
3:01 PM 33.8 °F 26.4 °F 33.8 °F 100% 30.04 in 10.0 mi East 9.2 mph 18.4 mph N/A   Overcast
3:08 PM 33.8 °F 24.3 °F 33.8 °F 100% 30.04 in 10.0 mi East 13.8 mph - N/A   Overcast
3:40 PM 33.8 °F 26.4 °F 33.8 °F 100% 30.03 in 10.0 mi East 9.2 mph 19.6 mph N/A   Overcast
3:45 PM 33.8 °F 25.8 °F 33.8 °F 100% 30.02 in 10.0 mi East 10.4 mph 17.3 mph N/A   Light Drizzle
3:55 PM 34.2 °F 25.7 °F 34.2 °F 100% 30.03 in 10.0 mi East 11.5 mph - 0.00 in   Light Drizzle
4:03 PM 33.8 °F 25.3 °F 33.8 °F 100% 30.02 in 10.0 mi East 11.5 mph 18.4 mph N/A Rain Light Rain
4:11 PM 33.8 °F 24.8 °F 33.8 °F 100% 30.02 in 10.0 mi East 12.7 mph 18.4 mph N/A   Overcast
4:45 PM 33.8 °F 24.3 °F 33.8 °F 100% 30.01 in 10.0 mi East 13.8 mph 19.6 mph N/A   Light Ice Pellets
4:55 PM 33.8 °F 25.3 °F 33.8 °F 100% 30.01 in 9.0 mi East 11.5 mph 19.6 mph 0.01 in Rain Light Rain
5:01 PM 33.8 °F 24.3 °F 33.8 °F 100% 29.99 in 10.0 mi East 13.8 mph 19.6 mph N/A Rain Light Rain
5:18 PM 33.8 °F 24.3 °F 33.8 °F 100% 29.99 in 10.0 mi East 13.8 mph 23.0 mph N/A   Overcast
5:25 PM 33.8 °F 24.3 °F 33.8 °F 100% 29.99 in 10.0 mi East 13.8 mph 23.0 mph N/A   Overcast
5:55 PM 33.8 °F 24.8 °F 33.8 °F 100% 29.97 in 10.0 mi East 12.7 mph 19.6 mph 0.00 in   Overcast
6:15 PM 33.8 °F 25.8 °F 33.8 °F 100% 29.97 in 10.0 mi East 10.4 mph - N/A   Overcast
6:22 PM 33.8 °F 25.3 °F 33.8 °F 100% 29.98 in 10.0 mi East 11.5 mph 18.4 mph N/A   Light Drizzle
6:33 PM 33.8 °F 23.9 °F 33.8 °F 100% 29.97 in 10.0 mi East 15.0 mph 21.9 mph N/A   Overcast
7:25 PM 33.8 °F 25.8 °F 33.8 °F 100% 29.98 in 10.0 mi ESE 10.4 mph 17.3 mph N/A   Overcast
7:55 PM 33.4 °F 24.8 °F 33.4 °F 100% 29.98 in 10.0 mi ESE 11.5 mph - 0.00 in   Overcast
8:55 PM 33.8 °F 25.3 °F 33.8 °F 100% 29.98 in 10.0 mi East 11.5 mph 17.3 mph N/A   Overcast
9:55 PM 33.8 °F 25.3 °F 33.8 °F 100% 29.96 in 10.0 mi East 11.5 mph - N/A   Overcast
10:00 PM 33.8 °F 24.8 °F 33.8 °F 100% 29.96 in 10.0 mi East 12.7 mph 18.4 mph N/A   Overcast
10:43 PM 33.8 °F 24.8 °F 33.8 °F 100% 29.94 in 10.0 mi East 12.7 mph - N/A   Overcast
10:55 PM 34.0 °F 24.6 °F 34.0 °F 100% 29.94 in 10.0 mi East 13.8 mph - N/A   Overcast
11:38 PM 33.8 °F 25.8 °F 33.8 °F 100% 29.91 in 10.0 mi East 10.4 mph - N/A   Light Drizzle
11:58 PM 33.8 °F 23.9 °F 33.8 °F 100% 29.89 in 10.0 mi East 15.0 mph 20.7 mph N/A   Overcast